FW9448 Weather Reports


time (UTC)temp
C
wind
direction
speed
KPH
gust
KPH
rain 1hr
cm
rain 24hr
cm
rain mn
cm
humidity
%
barometer
mb
20260505051537 3 239 9.7 20.9 0.00 0.48 0.00 92 1005.8
20260505041543 5 223 8.0 25.7 0.00 0.48 0.00 90 1005.3
20260505040038 5 268 8.0 25.7 0.00 0.48 0.00 90 1005.3
20260505034545 5 255 9.7 24.1 0.00 0.48 0.00 91 1005.1
20260505033046 4 216 9.7 20.9 0.00 0.48 0.00 91 1005.0
20260505031540 4 287 8.0 19.3 0.00 0.48 0.00 91 1004.7
20260505030044 4 266 9.7 22.5 0.03 0.48 0.00 90 1004.6
20260505024543 5 232 9.7 27.4 0.03 0.48 0.48 91 1004.3
20260505023040 5 228 8.0 22.5 0.03 0.48 0.48 90 1004.0
20260505021540 5 207 9.7 24.1 0.03 0.48 0.48 91 1003.9
20260505020039 5 198 9.7 29.0 0.00 0.46 0.46 90 1003.6
20260505014539 5 260 9.7 24.1 0.00 0.46 0.46 89 1003.6
20260505013037 5 194 11.3 20.9 0.00 0.46 0.46 86 1003.4
20260505011555 6 253 8.0 24.1 0.00 0.46 0.46 84 1003.3
20260505010043 6 226 6.4 25.7 0.00 0.46 0.46 82 1003.1
20260505004538 6 220 9.7 27.4 0.00 0.48 0.46 82 1003.1
20260505003037 5 126 14.5 29.0 0.00 0.48 0.46 84 1002.9
20260505001538 5 169 4.8 17.7 0.00 0.48 0.46 84 1002.9
20260505000043 5 189 4.8 19.3 0.00 0.48 0.46 83 1002.7
20260504234540 5 225 6.4 20.9 0.00 0.53 0.46 83 1002.4
20260504233051 5 217 4.8 16.1 0.00 0.53 0.46 81 1002.3
20260504231538 5 235 4.8 20.9 0.00 0.53 0.46 80 1002.2
20260504230037 5 205 6.4 17.7 0.00 0.53 0.46 80 1002.0
20260504224541 5 0 4.8 16.1 0.00 0.71 0.46 79 1002.1
20260504223039 6 235 4.8 19.3 0.00 0.71 0.46 78 1001.9
20260504221538 6 226 8.0 22.5 0.00 0.71 0.46 78 1001.9
20260504220037 6 79 6.4 24.1 0.00 0.71 0.46 79 1001.7
20260504214538 6 221 8.0 25.7 0.00 0.89 0.46 80 1001.6
20260504213038 6 227 4.8 19.3 0.00 0.89 0.46 80 1001.3
20260504211538 7 204 9.7 22.5 0.00 0.89 0.46 79 1001.1
20260504210038 7 201 8.0 20.9 0.00 0.89 0.46 81 1000.9
20260504204538 7 225 6.4 24.1 0.00 1.02 0.46 80 1000.6
20260504203039 7 189 8.0 22.5 0.00 1.02 0.46 80 1000.4
20260504201538 7 147 9.7 25.7 0.00 1.02 0.46 80 1000.4
20260504200038 8 300 6.4 24.1 0.00 1.02 0.46 80 1000.1
20260504194538 8 166 8.0 17.7 0.00 1.12 0.46 81 999.6
20260504193036 7 252 9.7 25.7 0.00 1.12 0.46 82 999.5
20260504191537 7 216 9.7 24.1 0.00 1.12 0.46 83 999.4
20260504190038 7 264 12.9 25.7 0.00 1.12 0.46 84 999.3
20260504184537 7 236 9.7 25.7 0.00 1.12 0.46 84 999.2
20260504183038 7 207 14.5 32.2 0.00 1.12 0.46 86 999.1
20260504181538 6 246 12.9 25.7 0.00 1.12 0.46 90 999.0
20260504180043 5 190 6.4 25.7 0.00 1.12 0.46 90 999.0
20260504174538 5 245 14.5 29.0 0.00 1.12 0.46 89 998.6
20260504173037 5 212 17.7 35.4 0.00 1.12 0.46 90 998.3
20260504171547 5 193 19.3 35.4 0.00 1.12 0.46 91 998.1
20260504081541 2 263 9.7 16.1 0.08 0.84 0.18 96 977.0